| time (UTC) | temp F | wind direction | speed MPH | gust MPH | rain 1hr in | rain 24hr in | rain mn in | humidity % | barometer mb |
| 20260506221540 | 69 | 298 | 9.0 | 22.0 | 0.00 | 0.00 | 0.00 | 66 | 1020.2 |
| 20260506220049 | 69 | 299 | 8.0 | 16.0 | 0.00 | 0.00 | 0.00 | 64 | 1020.4 |
| 20260506214551 | 69 | 317 | 9.0 | 16.0 | 0.00 | 0.00 | 0.00 | 64 | 1020.4 |
| 20260506213042 | 69 | 266 | 10.0 | 21.0 | 0.00 | 0.00 | 0.00 | 65 | 1020.5 |
| 20260506211542 | 68 | 307 | 6.0 | 18.0 | 0.00 | 0.00 | 0.00 | 66 | 1020.6 |
| 20260506210048 | 68 | 254 | 7.0 | 18.0 | 0.00 | 0.00 | 0.00 | 66 | 1020.7 |
| 20260506204543 | 68 | 288 | 7.0 | 16.0 | 0.00 | 0.00 | 0.00 | 65 | 1020.8 |
| 20260506203043 | 68 | 285 | 10.0 | 16.0 | 0.00 | 0.00 | 0.00 | 66 | 1020.8 |
| 20260506201542 | 67 | 317 | 7.0 | 15.0 | 0.00 | 0.00 | 0.00 | 67 | 1021.1 |
| 20260506200048 | 66 | 248 | 9.0 | 16.0 | 0.00 | 0.00 | 0.00 | 68 | 1021.3 |
| 20260506194542 | 65 | 328 | 6.0 | 14.0 | 0.00 | 0.00 | 0.00 | 69 | 1021.4 |
| 20260506193049 | 65 | 296 | 4.0 | 19.0 | 0.00 | 0.00 | 0.00 | 69 | 1021.5 |
| 20260506191551 | 64 | 265 | 8.0 | 16.0 | 0.00 | 0.00 | 0.00 | 70 | 1021.6 |
| 20260506190046 | 64 | 282 | 10.0 | 15.0 | 0.00 | 0.00 | 0.00 | 70 | 1021.8 |
| 20260506184546 | 65 | 250 | 7.0 | 14.0 | 0.00 | 0.00 | 0.00 | 69 | 1021.7 |
| 20260506183053 | 64 | 275 | 4.0 | 10.0 | 0.00 | 0.00 | 0.00 | 70 | 1021.7 |
| 20260506181559 | 64 | 215 | 7.0 | 11.0 | 0.00 | 0.00 | 0.00 | 70 | 1021.8 |
| 20260506180055 | 64 | 329 | 6.0 | 12.0 | 0.00 | 0.00 | 0.00 | 70 | 1021.8 |
| 20260506174538 | 62 | 286 | 5.0 | 12.0 | 0.00 | 0.00 | 0.00 | 72 | 1021.7 |
| 20260506173101 | 61 | 51 | 3.0 | 13.0 | 0.00 | 0.00 | 0.00 | 74 | 1021.8 |
| 20260506171545 | 61 | 157 | 4.0 | 10.0 | 0.00 | 0.00 | 0.00 | 75 | 1021.8 |
| 20260506170041 | 60 | 223 | 4.0 | 11.0 | 0.00 | 0.00 | 0.00 | 75 | 1021.8 |
| 20260506164539 | 60 | 286 | 3.0 | 9.0 | 0.00 | 0.00 | 0.00 | 75 | 1021.8 |
| 20260506163052 | 60 | 0 | 5.0 | 12.0 | 0.00 | 0.00 | 0.00 | 75 | 1021.8 |
| 20260506161553 | 59 | 15 | 2.0 | 7.0 | 0.00 | 0.00 | 0.00 | 77 | 1021.9 |
| 20260506160046 | 58 | 142 | 2.0 | 7.0 | 0.00 | 0.00 | 0.00 | 79 | 1021.8 |
| 20260506154548 | 58 | 225 | 3.0 | 9.0 | 0.00 | 0.00 | 0.00 | 79 | 1021.8 |
| 20260506153045 | 57 | 254 | 3.0 | 8.0 | 0.00 | 0.00 | 0.00 | 80 | 1021.8 |
| 20260506151550 | 58 | 244 | 2.0 | 7.0 | 0.00 | 0.00 | 0.00 | 79 | 1021.8 |
| 20260506150047 | 57 | 244 | 1.0 | 6.0 | 0.00 | 0.00 | 0.00 | 81 | 1021.9 |
| 20260506144602 | 57 | 325 | 2.0 | 5.0 | 0.00 | 0.00 | 0.00 | 80 | 1021.7 |
| 20260506143050 | 57 | 22 | 2.0 | 4.0 | 0.00 | 0.00 | 0.00 | 82 | 1021.6 |
| 20260506141550 | 56 | 26 | 1.0 | 3.0 | 0.00 | 0.00 | 0.00 | 83 | 1021.4 |
| 20260506140040 | 55 | 41 | 0.0 | 2.0 | 0.00 | 0.00 | 0.00 | 85 | 1021.2 |
| 20260506134538 | 55 | 76 | 1.0 | 3.0 | 0.00 | 0.00 | 0.00 | 85 | 1021.0 |
| 20260506133049 | 55 | 51 | 1.0 | 2.0 | 0.00 | 0.00 | 0.00 | 84 | 1021.0 |
| 20260506131544 | 55 | 334 | 1.0 | 3.0 | 0.00 | 0.00 | 0.00 | 83 | 1020.9 |
| 20260506130042 | 55 | 19 | 2.0 | 5.0 | 0.00 | 0.00 | 0.00 | 83 | 1020.8 |
| 20260506124548 | 56 | 332 | 3.0 | 5.0 | 0.00 | 0.00 | 0.00 | 82 | 1020.8 |
| 20260506123052 | 56 | 319 | 1.0 | 7.0 | 0.00 | 0.00 | 0.00 | 81 | 1020.7 |
| 20260506121546 | 55 | 332 | 4.0 | 10.0 | 0.00 | 0.00 | 0.00 | 81 | 1020.6 |
| 20260506120051 | 55 | 254 | 3.0 | 8.0 | 0.00 | 0.00 | 0.00 | 81 | 1020.7 |
| 20260506114549 | 55 | 328 | 5.0 | 11.0 | 0.00 | 0.00 | 0.00 | 81 | 1020.6 |
| 20260506113048 | 55 | 310 | 5.0 | 9.0 | 0.00 | 0.00 | 0.00 | 81 | 1020.5 |
| 20260506111549 | 55 | 325 | 3.0 | 9.0 | 0.00 | 0.00 | 0.00 | 81 | 1020.4 |
| 20260506110052 | 56 | 299 | 5.0 | 9.0 | 0.00 | 0.00 | 0.00 | 81 | 1020.3 |
| 20260506104547 | 56 | 333 | 5.0 | 9.0 | 0.00 | 0.01 | 0.00 | 81 | 1020.3 |
| 20260506103042 | 56 | 341 | 6.0 | 11.0 | 0.00 | 0.01 | 0.00 | 81 | 1020.4 |
| 20260506101542 | 55 | 309 | 3.0 | 8.0 | 0.00 | 0.01 | 0.00 | 81 | 1020.2 |
| 20260506100046 | 55 | 330 | 4.0 | 9.0 | 0.00 | 0.01 | 0.00 | 82 | 1020.2 |
| 20260506094558 | 55 | 328 | 3.0 | 5.0 | 0.00 | 0.02 | 0.00 | 84 | 1020.3 |
| 20260506093046 | 55 | 328 | 3.0 | 5.0 | 0.00 | 0.02 | 0.00 | 84 | 1020.2 |
| 20260506091545 | 55 | 344 | 2.0 | 4.0 | 0.00 | 0.02 | 0.00 | 83 | 1020.3 |
| 20260506090041 | 55 | 319 | 2.0 | 4.0 | 0.00 | 0.02 | 0.00 | 83 | 1020.1 |
| 20260506084541 | 56 | 330 | 2.0 | 9.0 | 0.00 | 0.08 | 0.00 | 82 | 1020.3 |
| 20260506083042 | 56 | 312 | 6.0 | 11.0 | 0.00 | 0.08 | 0.00 | 82 | 1020.1 |
| 20260506081540 | 56 | 304 | 5.0 | 10.0 | 0.00 | 0.08 | 0.00 | 82 | 1020.3 |
| 20260506073047 | 56 | 335 | 3.0 | 10.0 | 0.00 | 0.15 | 0.00 | 82 | 1020.1 |
| 20260506071557 | 56 | 312 | 4.0 | 11.0 | 0.00 | 0.15 | 0.00 | 83 | 1020.0 |
| 20260506061543 | 56 | 301 | 3.0 | 10.0 | 0.00 | 0.17 | 0.15 | 85 | 1019.5 |
| 20260506044548 | 56 | 319 | 1.0 | 8.0 | 0.00 | 0.21 | 0.15 | 81 | 1019.1 |
| 20260506043040 | 56 | 244 | 5.0 | 11.0 | 0.00 | 0.21 | 0.15 | 81 | 1018.9 |
| 20260506041548 | 57 | 288 | 3.0 | 10.0 | 0.00 | 0.21 | 0.15 | 80 | 1018.8 |
| 20260506040050 | 57 | 266 | 5.0 | 10.0 | 0.00 | 0.21 | 0.15 | 79 | 1018.6 |
| 20260506034549 | 57 | 270 | 4.0 | 11.0 | 0.00 | 0.21 | 0.15 | 80 | 1018.4 |
| 20260506033044 | 57 | 298 | 6.0 | 13.0 | 0.00 | 0.21 | 0.15 | 80 | 1018.2 |
| 20260506031541 | 57 | 271 | 6.0 | 12.0 | 0.00 | 0.21 | 0.15 | 79 | 1018.0 |
| 20260506030041 | 58 | 284 | 8.0 | 16.0 | 0.00 | 0.21 | 0.15 | 79 | 1017.7 |
| 20260506024540 | 58 | 315 | 7.0 | 16.0 | 0.00 | 0.21 | 0.15 | 77 | 1017.7 |
| 20260506023044 | 59 | 246 | 8.0 | 16.0 | 0.00 | 0.21 | 0.15 | 75 | 1017.7 |
| 20260506021552 | 59 | 271 | 7.0 | 17.0 | 0.00 | 0.21 | 0.15 | 74 | 1017.5 |
| 20260506020042 | 60 | 248 | 8.0 | 19.0 | 0.00 | 0.21 | 0.15 | 73 | 1017.3 |
| 20260506014542 | 60 | 265 | 10.0 | 17.0 | 0.00 | 0.21 | 0.15 | 72 | 1017.2 |
| 20260506013049 | 60 | 286 | 8.0 | 14.0 | 0.00 | 0.21 | 0.15 | 73 | 1017.2 |
| 20260506011604 | 60 | 259 | 8.0 | 14.0 | 0.00 | 0.21 | 0.15 | 73 | 1017.2 |
| 20260506010046 | 60 | 310 | 7.0 | 13.0 | 0.00 | 0.21 | 0.15 | 74 | 1017.2 |
| 20260506004546 | 60 | 248 | 7.0 | 16.0 | 0.00 | 0.21 | 0.15 | 74 | 1017.1 |
| 20260506003043 | 60 | 269 | 10.0 | 17.0 | 0.00 | 0.21 | 0.15 | 73 | 1017.1 |
| 20260506001543 | 60 | 255 | 10.0 | 16.0 | 0.00 | 0.21 | 0.15 | 74 | 1016.9 |
| 20260506000054 | 60 | 254 | 10.0 | 16.0 | 0.00 | 0.21 | 0.15 | 73 | 1016.8 |
| 20260505234538 | 60 | 301 | 7.0 | 17.0 | 0.00 | 0.21 | 0.15 | 74 | 1016.9 |
| 20260505233042 | 60 | 171 | 6.0 | 14.0 | 0.00 | 0.21 | 0.15 | 74 | 1017.0 |
| 20260505231544 | 60 | 277 | 7.0 | 12.0 | 0.00 | 0.21 | 0.15 | 75 | 1017.0 |
| 20260505230042 | 60 | 294 | 8.0 | 14.0 | 0.00 | 0.21 | 0.15 | 76 | 1017.0 |
| 20260505224547 | 61 | 238 | 6.0 | 15.0 | 0.00 | 0.21 | 0.15 | 75 | 1016.8 |
| 20260505223045 | 61 | 266 | 8.0 | 17.0 | 0.00 | 0.21 | 0.15 | 74 | 1016.8 |